GW6390 Weather Reports


Display with metric or nautical units.
time (UTC)temp
F
wind
direction
speed
MPH
gust
MPH
rain 1hr
in
rain 24hr
in
rain mn
in
humidity
%
barometer
mb
20260504081558 48 5 14.0 19.0 0.00 0.00 0.00 56 1015.1
20260504081022 48 18 15.0 19.0 0.00 0.00 0.00 55 1015.0
20260504080516 48 42 12.0 17.0 0.00 0.00 0.00 55 1015.2
20260504080329 48 40 12.0 18.0 0.00 0.00 0.00 54 1015.1
20260504060110 54 24 20.0 30.0 0.00 0.00 0.00 37 1012.5
20260504050524 55 27 14.0 26.0 0.00 0.00 0.00 34 1011.3
20260504050118 55 44 15.0 26.0 0.00 0.00 0.00 34 1011.1
20260504045523 55 43 15.0 20.0 0.00 0.00 0.00 34 1011.2
20260504045020 56 57 14.0 20.0 0.00 0.00 0.00 35 1011.1
20260504044615 56 51 14.0 20.0 0.00 0.00 0.00 35 1011.0
20260504044022 56 37 13.0 22.0 0.00 0.00 0.00 35 1010.9
20260504043525 56 41 15.0 26.0 0.00 0.00 0.00 35 1010.4
20260504043119 57 28 19.0 29.0 0.00 0.00 0.00 34 1010.2
20260504042522 58 27 20.0 24.0 0.00 0.00 0.00 35 1010.0
20260504042022 58 26 15.0 22.0 0.00 0.00 0.00 36 1009.8
20260504041617 57 33 16.0 20.0 0.00 0.00 0.00 37 1009.7
20260504041023 56 34 8.0 13.0 0.00 0.00 0.00 38 1009.4
20260504040519 57 18 5.0 8.0 0.00 0.00 0.00 38 1009.4
20260504040041 57 22 4.0 8.0 0.00 0.00 0.00 37 1009.0
20260504035517 57 17 5.0 8.0 0.00 0.00 0.00 37 1009.0
20260504035016 58 27 5.0 10.0 0.00 0.00 0.00 36 1008.8
20260504034610 58 24 7.0 10.0 0.00 0.00 0.00 36 1008.8
20260504034029 58 22 7.0 10.0 0.00 0.00 0.00 35 1008.7
20260504033516 59 31 7.0 10.0 0.00 0.00 0.00 35 1008.7
20260504033049 59 32 7.0 11.0 0.00 0.00 0.00 34 1008.5
20260504032520 59 26 8.0 12.0 0.00 0.00 0.00 34 1008.4
20260504032020 59 29 7.0 12.0 0.00 0.00 0.00 34 1008.2
20260504031542 60 32 9.0 12.0 0.00 0.00 0.00 33 1008.4
20260504031015 60 39 9.0 13.0 0.00 0.00 0.00 33 1008.3
20260504030513 61 25 9.0 14.0 0.00 0.00 0.00 33 1008.4
20260504030048 61 30 10.0 14.0 0.00 0.00 0.00 32 1008.2
20260504025518 62 36 9.0 19.0 0.00 0.00 0.00 31 1008.0
20260504025013 63 26 11.0 19.0 0.00 0.00 0.00 30 1008.0
20260504024547 63 22 11.0 15.0 0.00 0.00 0.00 29 1008.2
20260504024021 63 21 12.0 16.0 0.00 0.00 0.00 28 1007.9
20260504023518 64 21 12.0 16.0 0.00 0.00 0.00 27 1007.6
20260504023059 64 19 11.0 14.0 0.00 0.00 0.00 27 1007.8
20260504022515 65 24 11.0 16.0 0.00 0.00 0.00 26 1007.8
20260504022015 65 30 12.0 18.0 0.00 0.00 0.00 26 1008.0
20260504021551 66 5 12.0 22.0 0.00 0.00 0.00 25 1007.7
20260504021018 67 15 16.0 22.0 0.00 0.00 0.00 24 1007.6
20260504020515 68 12 9.0 16.0 0.00 0.00 0.00 23 1007.7
20260504020048 69 17 10.0 17.0 0.00 0.00 0.00 23 1007.6
20260504015518 69 5 11.0 14.0 0.00 0.00 0.00 23 1007.7
20260504015017 70 11 9.0 14.0 0.00 0.00 0.00 22 1007.7
20260504014820 71 352 9.0 15.0 0.00 0.00 0.00 21 1007.8
20260504014016 72 348 10.0 17.0 0.00 0.00 0.00 21 1007.7
20260504013517 72 5 12.0 17.0 0.00 0.00 0.00 21 1007.5
20260504013049 72 355 12.0 19.0 0.00 0.00 0.00 20 1007.7
20260504012514 72 349 12.0 21.0 0.00 0.00 0.00 20 1007.8
20260504012017 72 323 13.0 21.0 0.00 0.00 0.00 20 1007.9
20260504011546 73 333 15.0 19.0 0.00 0.00 0.00 19 1007.8
20260504011014 73 334 12.0 22.0 0.00 0.00 0.00 19 1007.9
20260504010824 73 327 16.0 22.0 0.00 0.00 0.00 18 1007.9
20260504010819 73 340 15.0 22.0 0.00 0.00 0.00 18 1007.7
20260504005515 73 331 17.0 22.0 0.00 0.00 0.00 18 1007.7
20260504005018 73 332 13.0 20.0 0.00 0.00 0.00 18 1007.9
20260504004554 73 333 15.0 24.0 0.00 0.00 0.00 18 1007.9
20260504004016 74 342 17.0 24.0 0.00 0.00 0.00 18 1007.8
20260504003515 74 350 18.0 23.0 0.00 0.00 0.00 18 1007.9
20260504003102 74 350 16.0 24.0 0.00 0.00 0.00 18 1007.9
20260504002518 74 352 18.0 24.0 0.00 0.00 0.00 18 1007.9
20260504002019 74 352 14.0 24.0 0.00 0.00 0.00 18 1008.0
20260504001604 74 345 16.0 25.0 0.00 0.00 0.00 18 1008.0
20260504001017 74 344 19.0 25.0 0.00 0.00 0.00 18 1007.9
20260504000517 74 346 13.0 26.0 0.00 0.00 0.00 18 1008.1
20260504000028 75 336 17.0 26.0 0.00 0.00 0.00 17 1008.0
20260503235515 75 306 18.0 22.0 0.00 0.00 0.00 17 1008.0
20260503235027 75 352 15.0 21.0 0.00 0.00 0.00 17 1007.9
20260503234538 75 341 12.0 33.0 0.00 0.00 0.00 17 1008.1
20260503234019 75 352 18.0 33.0 0.00 0.00 0.00 17 1008.0
20260503233515 75 309 16.0 24.0 0.00 0.00 0.00 17 1008.1
20260503233040 75 325 17.0 22.0 0.00 0.00 0.00 17 1008.2
20260503232514 75 15 16.0 25.0 0.00 0.00 0.00 17 1008.3
20260503232015 75 316 17.0 25.0 0.00 0.00 0.00 17 1008.3
20260503231540 75 342 14.0 22.0 0.00 0.00 0.00 17 1008.3
20260503231016 75 322 17.0 24.0 0.00 0.00 0.00 17 1008.6
20260503230514 75 334 19.0 24.0 0.00 0.00 0.00 16 1008.3
20260503230043 75 335 15.0 22.0 0.00 0.00 0.00 16 1008.2
20260503225513 75 337 13.0 29.0 0.00 0.00 0.00 16 1008.3
20260503225014 75 331 10.0 22.0 0.00 0.00 0.00 16 1008.5
20260503224539 75 319 13.0 20.0 0.00 0.00 0.00 17 1008.7
20260503224017 75 346 15.0 25.0 0.00 0.00 0.00 16 1008.7
20260503223514 75 338 17.0 25.0 0.00 0.00 0.00 16 1008.5
20260503223040 75 319 15.0 23.0 0.00 0.00 0.00 17 1008.7
20260503222513 75 348 15.0 24.0 0.00 0.00 0.00 17 1008.7
20260503222016 75 315 18.0 24.0 0.00 0.00 0.00 16 1008.5
20260503221552 75 329 13.0 22.0 0.00 0.00 0.00 17 1008.8
20260503221012 75 309 16.0 22.0 0.00 0.00 0.00 17 1008.7
20260503220519 75 339 13.0 19.0 0.00 0.00 0.00 17 1008.9
20260503220047 75 360 13.0 23.0 0.00 0.00 0.00 17 1009.0
20260503215514 75 304 16.0 23.0 0.00 0.00 0.00 16 1009.1
20260503215013 75 320 15.0 21.0 0.00 0.00 0.00 17 1009.1
20260503214541 75 338 15.0 21.0 0.00 0.00 0.00 17 1009.2
20260503214016 74 329 10.0 21.0 0.00 0.00 0.00 18 1009.2
20260503213514 74 304 13.0 20.0 0.00 0.00 0.00 18 1009.3
20260503213038 74 313 9.0 22.0 0.00 0.00 0.00 18 1009.3
20260503212516 74 325 15.0 22.0 0.00 0.00 0.00 17 1009.6
20260503212011 75 337 14.0 22.0 0.00 0.00 0.00 17 1009.6
20260503211549 74 288 12.0 19.0 0.00 0.00 0.00 17 1009.8
20260503211020 74 346 10.0 22.0 0.00 0.00 0.00 17 1009.6
20260503210515 75 329 17.0 22.0 0.00 0.00 0.00 17 1009.6
20260503210047 74 5 14.0 20.0 0.00 0.00 0.00 17 1009.8
20260503205517 74 320 13.0 23.0 0.00 0.00 0.00 16 1010.0
20260503205016 74 323 16.0 23.0 0.00 0.00 0.00 16 1009.9
20260503204547 74 326 16.0 22.0 0.00 0.00 0.00 16 1009.8
20260503204019 74 342 14.0 21.0 0.00 0.00 0.00 16 1009.9
20260503203516 73 350 15.0 22.0 0.00 0.00 0.00 15 1010.2
20260503203049 73 349 16.0 26.0 0.00 0.00 0.00 16 1010.2
20260503202516 74 340 16.0 26.0 0.00 0.00 0.00 15 1010.0
20260503202017 74 331 14.0 25.0 0.00 0.00 0.00 16 1010.0
20260503201558 73 344 19.0 25.0 0.00 0.00 0.00 16 1010.0
20260503201014 72 343 17.0 25.0 0.00 0.00 0.00 15 1010.1
20260503200517 73 342 16.0 29.0 0.00 0.00 0.00 16 1010.2
20260503200056 74 304 17.0 29.0 0.00 0.00 0.00 15 1010.5
20260503195513 73 360 16.0 24.0 0.00 0.00 0.00 16 1010.3
20260503195027 73 329 18.0 27.0 0.00 0.00 0.00 15 1010.3
20260503194605 73 322 18.0 27.0 0.00 0.00 0.00 15 1010.4
20260503194022 73 331 16.0 26.0 0.00 0.00 0.00 15 1010.5
20260503193530 73 314 16.0 26.0 0.00 0.00 0.00 14 1010.3
20260503193057 75 319 18.0 26.0 0.00 0.00 0.00 15 1010.4
20260503192515 74 340 13.0 23.0 0.00 0.00 0.00 15 1010.7
20260503192014 74 332 15.0 25.0 0.00 0.00 0.00 16 1010.9
20260503191603 74 313 17.0 25.0 0.00 0.00 0.00 17 1010.9
20260503191018 74 355 17.0 24.0 0.00 0.00 0.00 17 1011.0
20260503190518 73 331 13.0 22.0 0.00 0.00 0.00 17 1011.1
20260503190105 72 297 12.0 21.0 0.00 0.00 0.00 17 1011.0
20260503185521 73 296 16.0 24.0 0.00 0.00 0.00 17 1011.0
20260503185018 73 344 15.0 24.0 0.00 0.00 0.00 17 1011.0
20260503184548 72 317 10.0 19.0 0.00 0.00 0.00 18 1011.3
20260503184024 73 346 12.0 19.0 0.00 0.00 0.00 17 1011.5
20260503183521 73 350 6.0 18.0 0.00 0.00 0.00 19 1011.5
20260503183108 72 305 11.0 18.0 0.00 0.00 0.00 18 1011.5
20260503182536 72 311 10.0 23.0 0.00 0.00 0.00 18 1011.7
20260503182021 73 311 15.0 23.0 0.00 0.00 0.00 18 1011.6
20260503181636 73 360 13.0 19.0 0.00 0.00 0.00 18 1011.7
20260503181019 72 342 10.0 17.0 0.00 0.00 0.00 20 1011.6
20260503180517 72 320 11.0 20.0 0.00 0.00 0.00 20 1011.7
20260503180028 72 313 12.0 20.0 0.00 0.00 0.00 20 1011.8
20260503175520 72 352 10.0 17.0 0.00 0.00 0.00 20 1012.0
20260503175028 72 306 13.0 16.0 0.00 0.00 0.00 20 1012.0
20260503174556 70 339 8.0 16.0 0.00 0.00 0.00 22 1011.9
20260503174022 70 317 4.0 12.0 0.00 0.00 0.00 23 1012.2
20260503173519 70 312 6.0 12.0 0.00 0.00 0.00 23 1012.3
20260503173109 69 312 3.0 10.0 0.00 0.00 0.00 24 1012.4
20260503172518 69 318 6.0 14.0 0.00 0.00 0.00 24 1012.4
20260503172020 69 336 9.0 14.0 0.00 0.00 0.00 24 1012.5
20260503171556 69 291 8.0 14.0 0.00 0.00 0.00 24 1012.5
20260503171158 69 290 6.0 13.0 0.00 0.00 0.00 26 1012.5
20260503170521 69 278 9.0 13.0 0.00 0.00 0.00 26 1012.8
20260503170115 68 317 8.0 16.0 0.00 0.00 0.00 26 1012.7
20260503160121 62 227 7.0 12.0 0.00 0.00 0.00 46 1013.1
20260503150518 55 244 11.0 19.0 0.00 0.00 0.00 57 1013.5
20260503131019 43 222 6.0 10.0 0.00 0.00 0.00 78 1014.2
20260503130519 43 192 7.0 10.0 0.00 0.00 0.00 78 1014.2
20260503120108 40 240 9.0 11.0 0.00 0.00 0.00 80 1014.3
20260503110519 38 220 5.0 8.0 0.00 0.00 0.00 79 1014.9
20260503100108 37 216 4.0 6.0 0.00 0.00 0.00 77 1015.3